Orbital Elements at Epoch 2453839.5 (2006-Apr-14.0) TDB
Reference: JPL 5 (heliocentric ecliptic J2000)
Element | Value | Uncertainty (1-sigma) | Units |
e | 0.711932414090286 | 0.0032265 | |
a | 3.26075831524011 | 0.036556 | au |
q | 0.939318776106244 | 1.6375e-05 | au |
i | 11.5122995825914 | 0.020867 | deg |
node | 70.4760044162668 | 0.097817 | deg |
peri | 198.1833800675977 | 0.10068 | deg |
M | 350.6764189561788 | 0.16032 | deg |
tp | 2453895.200179146768 (2006-Jun-08.70017915) | 0.021072 | TDB |
period | 2150.68270427328 5.89 | 36.167 0.09902 | d yr |
n | .167388708378368 | 0.0028149 | deg/d |
Q | 5.582197854373978 | 0.062582 | au |
|
| | Orbit Determination Parameters
Additional Information
|